sat.trackr.live / text

‹ back to catalog

STARLINK-35139

NORAD 66380 · 2025-257A

PAYLOAD ACTIVE UNKNOWN

§ Identity

Operator
Country
US
Launch date
2025-11-09
Launch site
AFETR
Launch vehicle
Mass (kg)
RCS (m²)

Purposes: comms

External: N2YO · Heavens-Above · Gunter

§ Orbital elements

Epoch: 2026-05-24T16:34:52.324896Z

Period
93.85 min
Inclination
53.1585°
Eccentricity
0.0001059
Mean motion
15.34402083 rev/d
Perigee alt
462.0 km
Apogee alt
463.4 km
Semi-major
6,840.8 km
B*
4.4969e-4
RAAN
223.0166°
Arg perigee
97.2351°
Mean anomaly
262.8772°
Rev number
3,132

§ Raw data

STARLINK-351391 66380U 25257A   26144.69088339  .00014849  00000+0  44969-3 0  99972 66380  53.1585 223.0166 0001059  97.2351 262.8772 15.34402083 31327

JSON: /api/v1/satellites/66380 · /tle

For live sub-satellite position, see the globe view (requires WebGL).

§ Visibility from observer

Set your observer location to see the next 7 days of passes ≥ 10°. The values pass through the URL so the page stays shareable.

No JS? Fill the form by hand. The geolocation button needs JavaScript.